Wind_Speed
23 24 26 27 26 23 23 25 27 29 29 27 24 22 22 23 23 20 20 21 19 18 20 20 21 22 24 26 26 24 24 24 21 20 20 20 21 21 20 20 21 20
21 22 24 25 26 24 22 23 26 28 28 25 23 21 21 22 23 21 20 20 18 18 20 20 20 21 22 24 23 21 21 20 19 19 19 19 20 20 19 19 19 17
20 21 21 23 24 24 22 23 25 25 25 24 22 21 20 21 22 22 20 17 16 17 20 21 21 21 21 21 20 19 18 18 19 19 19 19 19 19 18 17 16 14
21 21 21 22 22 22 22 23 23 23 22 22 21 21 19 19 21 21 19 17 16 18 20 22 21 20 19 18 18 18 18 19 19 18 17 18 19 18 15 15 15 14
22 22 22 24 25 22 21 21 21 20 20 20 20 19 17 18 20 20 19 18 18 19 20 21 20 18 16 17 16 17 18 18 17 16 16 17 19 16 13 15 16 14
23 23 23 25 28 23 18 17 17 19 20 20 19 18 17 18 18 18 20 19 19 19 19 19 19 18 17 18 18 17 16 15 14 14 14 16 17 15 14 15 14 12
23 24 24 25 28 24 15 13 13 17 19 18 17 17 17 17 17 19 21 21 21 21 19 18 18 18 17 18 18 17 15 15 15 14 13 15 15 13 12 13 11 11
23 23 23 24 27 21 12 12 11 12 14 16 16 16 17 16 17 20 22 23 23 21 18 17 17 17 17 17 17 16 16 16 15 12 13 15 13 11 11 11 11 11
22 22 21 22 25 19 10 11 10 9 12 15 15 14 16 16 17 19 20 22 22 19 18 18 17 16 17 16 16 16 16 15 13 12 13 13 11 11 11 11 11 11
20 20 19 20 21 17 9 7 7 9 10 12 12 13 15 15 16 18 19 19 19 18 18 19 18 17 18 18 17 16 15 14 13 13 14 12 12 12 12 12 12 13
17 17 16 16 17 13 7 5 5 7 8 8 10 13 15 15 16 18 19 18 17 17 17 18 18 17 17 17 15 14 15 15 14 14 14 13 13 13 13 13 13 13
17 15 13 13 13 10 6 5 5 6 7 7 9 12 14 16 18 20 20 18 17 17 15 16 17 16 14 14 14 14 15 15 15 15 15 13 13 13 13 13 13 13
17 15 12 10 10 8 7 7 7 7 8 10 11 13 14 16 18 21 21 19 18 18 15 16 18 16 14 14 15 15 15 14 15 16 15 14 13 14 14 14 14 14
16 14 11 9 9 9 8 8 9 9 9 11 14 15 15 16 17 20 21 20 20 19 18 18 18 17 16 16 16 16 15 14 15 15 14 14 14 14 14 15 15 15
14 13 10 8 8 9 9 10 11 11 11 12 15 16 15 15 16 18 20 20 20 20 20 19 17 18 18 17 16 16 15 15 15 14 14 14 14 13 14 14 15 15
14 13 11 9 8 9 10 11 12 13 13 14 15 14 13 14 16 18 21 20 20 21 20 18 17 18 19 18 17 15 14 14 14 13 13 13 13 14 14 14 15 15
14 14 13 12 10 10 9 12 13 13 13 13 14 13 12 14 16 18 21 20 20 22 20 18 18 19 19 18 17 15 14 14 13 13 12 12 13 14 14 14 14 15
14 14 13 12 12 11 9 9 10 10 11 13 14 13 12 14 16 18 20 20 21 21 19 17 18 19 19 18 17 16 16 15 14 13 13 13 13 13 13 13 14 15
13 13 13 12 11 11 10 7 6 6 8 10 12 12 12 14 16 17 18 19 21 22 19 17 18 19 19 19 18 17 17 17 16 15 14 13 12 12 13 13 14 15
13 13 12 11 10 9 9 8 6 6 6 8 10 13 13 13 13 16 18 20 22 22 19 18 19 20 19 19 19 19 20 18 17 16 15 14 13 13 13 13 14 16
13 12 11 10 8 7 7 7 7 6 7 6 7 9 11 11 12 17 20 22 23 21 18 17 18 20 20 20 20 21 21 19 16 16 15 15 15 16 15 16 17 17
13 12 10 8 6 5 6 6 7 4 3 4 1 4 7 10 12 15 16 19 20 18 16 16 17 19 20 21 21 22 22 20 18 18 17 16 17 17 16 16 17 17
12 11 9 6 4 4 6 7 8 8 5 3 2 6 8 10 13 15 15 15 15 16 17 16 17 19 19 19 20 22 22 21 20 19 18 17 17 17 16 17 18 18
10 9 7 5 3 4 5 6 7 8 8 6 3 3 8 11 15 17 15 13 13 17 23 21 20 20 18 17 18 20 21 20 18 17 17 17 18 18 17 19 21 22
8 6 5 3 3 3 4 5 6 7 8 9 8 6 4 6 12 14 12 10 12 17 23 24 23 20 18 16 16 17 18 16 15 16 16 17 17 18 18 19 21 24
4 3 3 3 1 1 2 2 4 7 9 11 11 10 8 4 3 8 8 7 9 14 21 25 24 23 22 20 18 17 17 14 13 15 17 18 19 21 22 23 25 25
Wind_Direction
307 302 293 283 275 269 265 266 267 267 269 271 271 273 274 272 268 263 261 255 243 236 231 225 221 219 215 215 219 221 211 204 202 206 213 215 214 217 218 212 209 209
313 311 302 291 282 275 266 260 261 261 263 266 270 271 270 269 266 262 259 252 242 231 222 218 217 214 212 213 213 207 201 201 203 207 214 213 212 215 212 212 216 212
316 317 311 302 293 284 273 262 259 259 260 262 268 271 268 266 264 263 261 250 237 228 218 214 211 204 200 199 197 194 199 209 208 205 210 210 210 213 208 210 218 217
316 316 315 315 307 288 274 266 260 257 258 260 268 272 267 262 261 261 259 245 224 216 211 203 195 189 187 189 192 196 203 209 207 204 210 212 211 212 210 208 215 220
317 317 318 325 323 299 270 263 259 253 252 255 263 268 259 255 257 253 247 237 216 203 198 192 185 182 185 190 196 203 205 205 204 203 211 218 213 207 206 210 215 224
316 319 321 328 332 315 273 253 251 246 247 251 258 262 253 248 251 241 231 226 212 200 196 195 192 190 191 194 197 201 202 203 205 205 212 222 217 203 204 212 212 217
312 316 320 326 333 323 282 247 241 241 247 254 259 261 251 242 242 233 221 217 214 209 204 201 199 196 194 196 196 194 199 205 205 205 210 218 220 213 215 222 217 215
310 312 317 323 332 326 276 234 230 236 247 255 259 256 242 232 233 227 218 216 217 213 208 206 202 197 194 196 195 191 199 207 201 200 212 216 217 220 225 230 228 223
308 310 315 321 331 326 273 226 213 224 244 251 250 239 224 224 232 227 219 217 216 211 207 206 203 197 194 195 194 192 200 209 201 199 213 216 211 213 219 223 225 225
311 311 314 319 328 324 288 234 206 213 234 244 237 222 216 225 233 228 219 215 215 212 206 207 206 198 193 194 192 190 198 206 206 203 206 210 209 208 212 218 221 221
322 318 313 316 325 321 288 245 215 212 223 234 231 222 222 229 231 225 219 215 217 214 199 201 212 204 192 192 190 189 198 202 203 204 203 204 206 206 209 217 219 220
332 327 315 309 317 318 284 245 230 221 224 230 230 224 223 229 229 224 220 216 220 221 202 197 212 209 192 188 187 191 200 200 200 203 203 202 203 205 209 213 216 219
334 327 317 305 302 305 289 262 246 234 227 225 226 222 219 224 225 221 217 211 212 217 211 204 205 200 193 190 189 195 200 197 199 203 203 203 203 205 208 208 211 215
338 331 323 309 295 291 284 274 265 254 242 235 233 227 218 218 220 219 216 213 211 210 208 209 200 187 190 195 194 197 199 197 198 199 201 204 202 203 206 206 208 210
348 346 341 325 302 289 282 276 270 261 252 246 243 237 227 223 225 224 219 215 214 210 207 208 199 187 191 196 195 198 200 197 198 197 201 203 199 200 205 206 208 208
354 354 354 346 321 299 282 273 267 260 253 250 250 247 241 238 237 233 227 217 212 214 212 208 201 196 198 198 196 198 199 196 197 199 202 202 198 200 204 206 209 208
356 354 356 352 339 321 293 273 267 265 260 258 257 252 245 243 241 236 231 220 210 213 213 208 205 203 203 204 203 203 201 198 198 200 201 202 201 202 203 205 207 205
356 354 354 352 347 342 322 282 265 266 268 263 258 253 244 243 243 238 231 220 214 216 213 207 210 209 204 205 207 208 209 207 205 203 202 202 203 203 206 208 208 204
356 355 352 352 352 352 344 311 271 264 269 266 262 255 244 239 239 237 231 220 217 219 212 206 213 213 206 205 205 206 209 208 207 205 201 198 197 200 206 208 207 204
353 358 353 354 358 356 349 327 293 260 243 255 266 260 253 248 236 227 225 223 220 215 205 204 213 212 206 205 204 203 204 202 202 201 197 195 194 197 203 203 203 205
347 355 354 357 2 358 351 338 320 278 241 253 269 252 249 248 224 205 206 216 223 216 198 196 209 209 205 204 203 201 200 197 195 193 192 194 196 199 204 203 202 205
342 350 357 2 4 6 11 15 12 353 279 278 261 205 236 252 237 219 215 224 231 222 200 196 208 210 207 204 202 201 200 198 197 197 196 198 200 204 206 206 206 206
342 351 3 8 12 27 39 42 37 32 13 335 233 206 226 245 248 246 247 252 243 215 195 199 213 215 210 205 203 203 202 201 202 203 202 203 206 207 209 212 213 209
344 357 11 25 50 61 55 47 34 28 27 22 356 262 237 240 247 249 253 265 252 213 196 196 206 212 211 208 206 206 205 202 202 204 207 212 213 212 214 219 216 207
345 359 19 45 76 69 50 45 37 31 35 36 23 356 307 257 250 249 252 263 253 225 209 204 205 208 211 210 210 208 205 201 201 206 212 217 221 220 220 225 221 209
347 355 24 43 56 10 357 32 52 49 42 36 31 24 17 9 257 249 261 270 255 232 219 215 214 214 215 217 219 216 212 207 209 216 219 221 228 231 226 224 225 221
Height
3131 3129 3128 3126 3125 3125 3125 3125 3125 3125 3126 3127 3127 3127 3125 3124 3123 3121 3119 3119 3119 3119 3119 3120 3121 3122 3124 3126 3128 3130 3131 3133 3135 3136 3137 3138 3140 3141 3142 3143 3145 3146
3128 3127 3125 3124 3122 3122 3121 3121 3121 3121 3122 3124 3124 3124 3123 3122 3121 3119 3118 3118 3117 3117 3118 3119 3120 3121 3122 3124 3126 3128 3130 3131 3133 3135 3136 3137 3138 3140 3141 3142 3144 3145
3126 3125 3123 3121 3120 3119 3118 3117 3117 3118 3119 3121 3121 3121 3120 3120 3120 3118 3117 3117 3117 3116 3117 3118 3118 3119 3121 3123 3125 3127 3129 3130 3132 3134 3135 3136 3137 3138 3140 3141 3142 3143
3124 3123 3121 3119 3117 3115 3114 3114 3114 3115 3117 3118 3118 3119 3118 3118 3118 3116 3116 3116 3115 3115 3116 3117 3117 3118 3119 3122 3123 3125 3127 3130 3131 3132 3133 3135 3135 3136 3137 3139 3140 3141
3122 3120 3118 3116 3114 3111 3110 3110 3111 3112 3114 3114 3115 3116 3115 3115 3115 3115 3115 3115 3114 3114 3116 3116 3117 3118 3119 3121 3122 3123 3125 3127 3129 3130 3132 3133 3134 3135 3136 3138 3139 3140
3120 3118 3116 3113 3111 3108 3107 3107 3108 3109 3110 3111 3112 3113 3113 3113 3113 3113 3114 3114 3114 3114 3115 3115 3117 3118 3119 3121 3122 3122 3123 3124 3127 3129 3131 3132 3133 3134 3135 3137 3138 3140
3118 3116 3113 3111 3108 3106 3104 3104 3105 3106 3108 3109 3110 3111 3111 3112 3112 3112 3113 3114 3114 3115 3115 3115 3116 3117 3118 3119 3120 3121 3121 3123 3126 3128 3130 3131 3132 3132 3133 3135 3137 3138
3116 3114 3111 3109 3106 3104 3103 3102 3103 3104 3106 3107 3108 3109 3109 3110 3111 3112 3112 3112 3113 3114 3114 3113 3114 3115 3116 3117 3118 3120 3120 3122 3125 3128 3129 3130 3131 3131 3132 3134 3135 3137
3114 3111 3109 3107 3105 3103 3102 3100 3101 3102 3104 3105 3106 3106 3107 3109 3110 3111 3112 3112 3113 3114 3113 3113 3113 3114 3114 3115 3117 3119 3121 3122 3125 3127 3128 3129 3130 3131 3132 3133 3134 3136
3112 3110 3107 3106 3104 3102 3101 3100 3100 3101 3102 3103 3104 3105 3106 3108 3109 3111 3112 3112 3113 3113 3114 3113 3113 3113 3114 3115 3116 3119 3121 3123 3125 3126 3127 3128 3129 3130 3132 3133 3134 3135
3110 3108 3106 3105 3103 3102 3101 3101 3101 3101 3102 3103 3104 3104 3106 3107 3109 3110 3110 3111 3111 3112 3113 3114 3113 3113 3114 3115 3117 3119 3121 3123 3124 3126 3127 3128 3129 3130 3131 3132 3133 3134
3109 3107 3105 3104 3103 3102 3102 3101 3101 3101 3102 3102 3103 3104 3105 3106 3107 3109 3109 3110 3110 3111 3113 3114 3114 3113 3114 3115 3117 3119 3121 3122 3124 3125 3126 3128 3129 3130 3131 3132 3133 3133
3108 3106 3104 3103 3103 3102 3101 3101 3101 3101 3101 3101 3101 3102 3103 3104 3106 3107 3108 3109 3110 3110 3111 3113 3113 3114 3114 3116 3117 3119 3120 3121 3123 3124 3125 3127 3128 3129 3130 3131 3131 3132
3107 3105 3104 3103 3102 3102 3101 3101 3101 3101 3101 3101 3100 3100 3101 3102 3104 3105 3106 3107 3108 3109 3109 3111 3112 3113 3115 3116 3117 3118 3120 3120 3122 3123 3125 3126 3127 3128 3129 3129 3130 3130
3106 3104 3103 3103 3102 3101 3101 3101 3101 3100 3100 3100 3099 3099 3100 3101 3102 3103 3104 3105 3107 3108 3108 3109 3111 3113 3114 3115 3116 3117 3119 3119 3121 3122 3124 3125 3126 3127 3128 3128 3129 3129
3106 3105 3104 3102 3101 3101 3100 3100 3099 3099 3099 3098 3098 3098 3099 3100 3101 3101 3102 3103 3105 3107 3107 3108 3110 3112 3113 3114 3115 3116 3117 3118 3120 3121 3122 3123 3124 3126 3127 3127 3128 3128
3106 3105 3104 3102 3101 3100 3099 3098 3097 3097 3097 3097 3097 3098 3099 3099 3099 3100 3101 3102 3103 3105 3106 3106 3108 3110 3111 3112 3113 3115 3115 3117 3118 3119 3120 3121 3123 3124 3125 3126 3126 3127
3106 3105 3103 3102 3101 3099 3098 3097 3096 3097 3097 3096 3096 3097 3098 3097 3097 3098 3099 3101 3103 3104 3104 3105 3107 3108 3109 3110 3112 3113 3114 3115 3116 3117 3119 3120 3121 3122 3123 3124 3125 3126
3106 3105 3103 3102 3101 3099 3098 3096 3096 3096 3096 3095 3095 3096 3096 3096 3097 3097 3098 3100 3101 3102 3102 3104 3106 3107 3108 3109 3110 3112 3113 3114 3115 3116 3117 3118 3120 3121 3122 3123 3124 3125
3106 3105 3103 3102 3101 3099 3098 3097 3096 3095 3094 3094 3094 3094 3095 3096 3096 3097 3097 3098 3099 3099 3101 3103 3105 3106 3106 3107 3109 3110 3111 3113 3114 3115 3116 3117 3119 3120 3120 3121 3122 3123
3105 3104 3103 3101 3100 3099 3098 3096 3095 3094 3094 3093 3093 3094 3095 3096 3096 3096 3096 3096 3097 3098 3100 3102 3103 3104 3105 3106 3107 3108 3110 3111 3113 3114 3115 3116 3117 3118 3118 3119 3120 3121
3105 3103 3102 3101 3100 3098 3097 3096 3095 3094 3094 3094 3094 3094 3095 3095 3095 3095 3094 3095 3096 3098 3099 3100 3102 3103 3104 3105 3105 3107 3108 3110 3111 3112 3113 3114 3115 3116 3117 3118 3119 3120
3104 3103 3102 3101 3099 3098 3098 3096 3095 3095 3094 3094 3094 3094 3094 3094 3093 3094 3094 3095 3096 3097 3098 3099 3101 3102 3102 3103 3104 3105 3106 3108 3109 3110 3111 3112 3113 3114 3115 3117 3117 3117
3104 3103 3102 3101 3100 3099 3098 3097 3096 3095 3094 3094 3093 3093 3093 3093 3092 3092 3093 3094 3095 3095 3096 3097 3099 3100 3101 3102 3103 3104 3105 3106 3108 3109 3110 3111 3112 3112 3113 3114 3115 3115
3104 3103 3102 3101 3100 3099 3098 3097 3096 3095 3095 3094 3093 3092 3092 3092 3092 3092 3092 3093 3093 3094 3094 3095 3097 3098 3100 3101 3102 3103 3104 3105 3106 3108 3109 3110 3111 3111 3111 3113 3113 3113
3104 3103 3102 3102 3101 3100 3099 3098 3097 3096 3095 3094 3093 3092 3091 3092 3092 3092 3093 3093 3093 3093 3094 3094 3095 3097 3099 3100 3102 3103 3104 3105 3106 3107 3108 3109 3110 3109 3109 3110 3111 3111